Regional Weather Roundup
Issued by NWS Albany, NY

Home | Current Version | Previous Version | Graphics & Text | Print | Product List | Glossary Off
Versions: 1 2 3 4 5 6 7 8 9 10 11 12 13 14 15 16 17 18 19 20 21 22 23 24 25 26 27 28 29 30 31 32 33 34 35 36 37 38 39 40 41 42 43 44 45 46 47 48 49 50

808
ASUS41 KALY 261910
RWRALY

NEW YORK STATE HOURLY WEATHER ROUNDUP
NATIONAL WEATHER SERVICE ALBANY NY
200 PM EST SUN FEB 26 2017

NOTE: "FAIR" INDICATES FEW OR NO CLOUDS BELOW 12,000 FEET WITH NO
SIGNIFICANT WEATHER AND/OR NO OBSTRUCTIONS TO VISIBILITY.

NYZ032-033-038>043-046>054-057>066-NYZ062>081-082-084-262000-
EAST


CITY           SKY/WX    TMP DP  RH WIND       PRES   REMARKS
ALBANY         CLOUDY    35  15  44 NW18G29   30.01R WCI  24
GLENS FALLS    CLOUDY    34  15  46 W12       29.97R WCI  25
POUGHKEEPSIE   CLOUDY    38  15  39 NW12G18   30.00R WCI  30
NEWBURGH       PTSUNNY   36  18  48 NW14G25   30.01S WCI  27
MONTGOMERY     CLOUDY    37  17  44 NW15G22   30.01R WCI  28
WHITE PLAINS   MOSUNNY   39  16  39 NW18G25   29.99R WCI  30
ISLIP          MOSUNNY   42  17  36 NW16G24   29.99S
NEW YORK CITY  MOSUNNY   43  16  33 W13       30.02R
CENTRAL PARK   PTSUNNY   41  14  33 VRB6      30.04R
$$

NYZ005>009-017-018-044>046-055-056-262000-
CENTRAL


CITY           SKY/WX    TMP DP  RH WIND       PRES   REMARKS
FULTON         CLOUDY    31  22  69 W20G26    30.04S WCI  19
SYRACUSE       FLURRIES  32  21  64 W15       30.04R WCI  22
ROME           LGT SNOW  30  27  88 NW13      30.04R FOG     WCI  20
ELMIRA         CLOUDY    35  18  49 W7        30.04S WCI  29
BINGHAMTON     CLOUDY    28  16  60 W15       29.99R WCI  16
MONTICELLO     PTSUNNY  N/A N/A N/A W15       29.98S
$$

NYZ026>034-041>043-087-262000-
NORTH


CITY           SKY/WX    TMP DP  RH WIND       PRES   REMARKS
WATERTOWN      CLOUDY    34  21  59 W14G28    30.02R WCI  25
FORT DRUM      NOT AVBL
OGDENSBURG     FAIR      36  14  41 W14       29.98S WCI  27
MASSENA        SUNNY     33  12  41 W20G26    29.98R WCI  21
SARANAC LAKE   PTSUNNY   26  12  55 W12G24    29.86R WCI  16
PLATTSBURGH    SUNNY     33   6  32 NW10G24   29.93R WCI  25
$$

NYZ001>004-010>016-019>021-085-262000-
WEST


CITY           SKY/WX    TMP DP  RH WIND       PRES   REMARKS
NIAGARA FALLS  MOSUNNY   34  19  54 W16G24    30.06S WCI  24
BUFFALO        PTSUNNY   32  19  58 SW20G31   30.06S WCI  20
DUNKIRK        PTSUNNY   31  20  63 SW16G25   30.10S WCI  20
JAMESTOWN      PTSUNNY   27  14  59 W10       30.04R WCI  17
WELLSVILLE     PTSUNNY   27  14  58 W14       30.01S WCI  16
ROCHESTER      CLOUDY    35  16  45 W17       30.05S WCI  25
PENN YAN       CLOUDY    31  19  61 W13       30.05R WCI  21
$$

             KEY
       WCI = WIND CHILL INDEX
       VSB = VISIBILITY
       HX  = HEAT INDEX
$$




USA.gov is the U.S. government's official web portal to all federal, state and local government web resources and services.